Dewpoint
55 55 55 55 55 55 55 55 55 56 56 56 56 56 57 57 56 55 56 56 56 56 56 55 55 55 55 55 55 56 56 53 49 46 45 39 50 64 60 63 61 64 65 60 60 54 47 47 52 59 59 59 59 59 66 66 67 65 61 60 54 56 55 56 57 56 58 59 61 63 62 61 60 61 61 60 61 61 60 58 58 58 58 56 57 60 61 63
55 55 55 55 55 55 55 55 56 56 56 56 56 56 57 57 56 55 55 56 56 56 55 55 55 55 55 55 55 56 54 51 46 44 41 45 58 60 61 62 65 61 68 55 54 47 43 44 52 58 59 58 61 61 65 65 67 63 59 57 53 58 60 62 60 59 59 59 62 64 63 61 59 60 59 58 58 60 59 58 57 60 60 61 61 61 61 62
55 55 55 55 55 55 55 55 55 55 56 56 56 56 56 56 56 56 55 55 55 55 56 55 55 55 55 55 56 57 54 45 44 40 34 62 61 62 63 66 65 64 63 52 48 44 41 43 52 58 59 57 59 61 64 64 65 63 60 58 55 62 62 63 63 63 63 60 63 63 62 62 61 59 58 60 58 57 56 56 56 58 58 59 60 60 61 63
55 55 55 55 55 55 55 56 55 55 55 56 56 56 56 56 56 56 55 55 55 55 55 55 54 55 55 56 56 54 50 46 33 27 56 65 63 64 63 67 66 66 60 48 44 41 41 44 53 57 58 56 58 62 63 63 62 62 62 60 58 63 62 63 64 65 64 64 63 62 62 61 60 60 61 59 55 55 53 55 55 56 58 60 60 61 61 61
55 55 55 55 55 56 56 56 56 56 56 56 55 55 55 55 55 55 55 55 55 55 54 54 55 55 55 56 56 54 50 20 12 39 57 66 62 64 64 66 66 59 53 47 44 37 38 46 51 54 56 56 57 59 61 64 62 61 61 62 62 63 61 64 64 67 64 65 63 62 61 60 59 59 60 58 52 52 54 55 56 58 59 59 59 59 60 61
55 55 55 55 55 55 55 55 56 55 55 55 55 55 56 55 55 55 54 55 54 54 54 54 55 55 56 56 54 52 41 -17 31 25 67 66 62 64 65 67 67 52 49 48 43 40 40 44 48 53 55 56 56 57 58 58 60 61 59 60 64 62 63 66 66 66 64 64 63 60 64 62 58 58 56 60 60 56 55 57 58 59 59 59 60 60 60 59
55 55 55 55 55 55 55 55 55 55 55 55 55 55 55 55 55 55 54 54 54 54 54 54 55 55 55 57 52 46 35 22 18 44 70 68 64 65 65 66 68 52 46 47 43 39 38 42 47 53 55 56 56 57 57 58 59 61 60 58 64 66 64 66 65 65 62 63 62 65 64 61 57 56 60 61 59 57 57 59 59 59 59 59 59 59 59 59
55 55 55 55 55 55 55 55 55 55 55 55 55 55 55 55 55 55 55 54 54 54 54 55 55 55 56 53 49 41 26 13 36 53 69 67 62 59 61 51 57 47 42 43 42 38 38 41 46 54 56 56 56 56 58 55 58 58 58 60 65 65 65 65 64 62 63 64 65 64 62 61 60 60 60 60 58 58 58 59 59 59 59 59 59 58 59 60
55 55 55 55 55 55 55 55 55 55 55 55 55 55 55 55 54 54 54 54 54 55 54 55 55 55 56 52 45 18 8 41 52 60 65 60 50 49 45 51 51 41 36 41 41 37 36 39 45 55 56 56 52 53 51 53 60 57 60 58 62 64 65 66 66 64 65 65 65 64 63 62 62 62 60 58 59 58 59 59 59 59 59 59 59 59 60 60
55 55 55 55 55 55 55 55 55 55 55 55 55 55 54 54 54 53 54 54 54 54 54 54 55 56 54 50 38 17 35 49 52 61 57 53 46 50 45 46 47 40 36 37 37 35 34 36 44 55 53 56 47 45 46 50 54 57 59 60 63 65 64 66 64 65 65 64 65 64 63 62 61 60 57 59 58 59 58 59 59 59 58 58 59 59 61 60
55 55 55 55 55 55 55 55 55 55 55 55 55 54 54 54 53 54 54 54 54 54 54 55 56 55 49 46 37 9 40 50 49 56 55 46 52 45 39 42 46 40 36 35 32 32 32 36 45 56 53 50 46 43 38 48 54 58 58 61 63 64 65 65 64 64 64 64 65 63 62 61 61 61 56 58 59 58 58 58 58 58 58 58 59 60 61 60
55 55 55 55 55 55 55 55 55 55 55 54 54 54 53 53 53 53 53 54 54 55 55 55 56 54 49 44 30 21 42 39 48 55 55 54 54 45 44 42 44 41 38 34 31 31 31 45 51 55 46 45 42 39 46 49 54 58 59 59 61 62 63 64 64 63 64 64 65 65 62 62 60 61 59 59 59 58 57 58 58 58 58 58 59 60 61 61
55 55 55 55 55 55 55 55 55 55 54 54 53 53 53 53 53 53 53 53 54 54 54 55 56 52 51 39 25 27 31 27 43 52 47 47 48 51 44 42 44 41 38 34 32 30 39 43 54 53 49 43 41 43 56 58 59 63 60 59 59 61 61 62 66 64 63 64 66 61 52 56 60 62 60 61 58 57 57 58 57 57 58 58 58 59 60 61
55 55 55 55 56 55 55 55 55 55 54 54 54 53 53 52 53 53 53 53 54 55 56 56 54 50 48 24 16 25 29 33 49 45 39 40 39 44 44 40 37 39 39 35 35 38 37 45 52 55 51 45 42 53 58 60 60 57 61 58 55 58 58 61 63 64 63 65 66 66 54 55 62 62 60 59 57 56 56 56 56 56 56 58 58 58 59 61
56 56 56 55 55 55 55 55 54 54 54 54 53 53 52 52 52 53 53 54 55 56 56 57 53 51 42 27 33 47 49 40 47 39 37 36 34 40 43 40 37 36 36 35 37 39 39 43 48 49 45 47 44 45 55 57 58 58 55 53 56 55 58 60 61 63 60 64 66 63 56 57 59 61 61 60 57 55 56 56 56 55 56 57 57 57 57 60
56 56 56 56 55 55 55 55 55 54 54 53 53 52 53 53 54 54 55 55 56 57 56 54 52 46 37 24 43 53 45 40 40 39 37 37 33 32 38 40 38 35 33 31 34 37 39 41 46 47 47 43 42 44 54 54 54 56 56 53 52 51 57 58 60 63 64 62 64 62 59 57 59 62 62 60 59 55 56 57 56 55 56 57 58 57 58 59
56 56 56 56 55 55 55 55 54 54 53 53 53 53 54 55 56 56 57 57 56 56 53 49 47 48 33 28 32 33 37 40 39 39 36 36 35 33 30 30 30 33 32 29 28 34 36 37 42 43 45 43 38 44 52 55 50 52 53 56 54 50 56 58 60 63 64 63 59 62 61 56 58 61 61 62 59 59 56 56 56 56 57 58 57 56 57 59
55 55 56 55 55 55 55 55 54 53 53 52 53 53 55 56 58 58 58 57 54 53 53 53 49 41 24 24 28 31 33 41 42 41 38 37 37 33 29 27 25 25 25 25 25 26 32 38 42 44 42 41 37 45 52 48 49 49 50 55 53 51 51 56 56 59 62 63 60 60 61 58 59 60 61 63 63 59 58 56 55 55 57 58 57 57 58 58
55 55 55 55 55 55 55 55 54 53 53 53 54 54 56 57 56 54 49 51 50 52 47 44 45 29 16 23 32 33 34 39 44 40 38 35 36 35 32 31 25 22 21 19 18 22 30 38 44 43 38 36 35 45 53 47 49 49 52 54 57 51 50 55 58 62 62 60 60 57 58 60 59 60 61 61 61 59 58 57 55 55 57 58 57 57 57 58
55 55 55 55 55 55 54 54 54 53 52 54 53 54 53 52 48 47 50 49 43 30 31 30 32 30 29 31 31 34 37 41 42 40 37 36 36 32 31 29 25 19 19 15 20 25 37 37 41 39 37 34 32 42 49 44 42 49 51 52 52 55 58 59 59 61 63 61 60 59 59 59 59 59 60 60 61 60 58 58 57 56 57 56 55 56 57 59
55 55 55 55 55 55 54 54 54 52 51 51 51 49 35 33 30 27 30 33 38 37 35 33 31 32 31 33 33 34 34 36 36 39 37 36 31 28 28 28 23 15 17 17 20 31 40 40 41 40 38 34 30 39 46 45 41 45 49 50 52 56 55 59 58 61 63 61 59 60 60 58 59 59 60 61 60 58 57 58 58 57 56 55 56 58 59 60
55 55 55 55 54 54 53 53 53 52 51 53 51 47 35 35 36 36 36 28 30 34 34 34 38 34 33 33 34 35 35 34 36 35 34 32 27 24 27 27 21 12 15 18 24 34 39 39 41 41 33 29 29 33 40 39 42 45 48 48 50 55 59 61 60 61 61 61 60 59 59 57 57 59 60 60 60 58 58 59 59 59 58 57 56 57 60 59
55 55 55 55 54 53 53 52 51 50 51 49 46 42 36 37 39 41 36 32 30 33 32 33 32 31 32 34 35 35 34 33 30 29 27 30 21 23 25 24 20 9 15 20 21 29 37 40 41 39 34 29 26 30 39 36 42 47 47 47 46 55 52 53 59 60 61 61 58 61 57 60 61 60 60 62 60 61 61 61 61 61 59 58 56 57 60 57
55 55 55 54 54 53 52 50 51 51 50 47 41 38 38 38 39 38 35 30 27 28 29 31 31 30 30 31 34 34 33 32 30 27 29 28 20 23 21 20 15 12 17 22 19 27 35 39 42 36 32 28 26 28 35 35 35 42 43 42 53 50 52 53 56 59 60 60 61 60 57 58 59 59 60 61 61 61 61 60 61 61 61 60 58 57 58 57
55 55 55 54 53 53 50 50 49 47 45 45 40 39 40 43 45 40 34 32 30 26 28 30 32 32 34 34 36 33 34 33 30 29 29 28 26 17 17 18 14 15 12 17 18 29 34 30 36 34 30 27 26 25 29 32 32 35 37 37 41 46 49 56 57 56 56 55 58 58 52 54 56 57 57 59 60 60 60 60 60 61 61 59 57 56 56 56
55 55 54 54 53 52 49 48 45 42 42 38 35 40 41 38 41 43 35 30 20 21 23 25 30 29 34 33 34 34 33 30 32 31 31 30 32 22 26 20 20 12 12 17 17 27 31 31 35 34 29 27 25 25 26 27 26 31 35 37 41 47 51 55 55 53 50 49 55 59 53 51 58 56 57 59 59 59 60 60 58 60 61 58 57 56 55 55
54 54 54 53 53 51 48 30 41 41 39 35 39 40 38 38 51 40 34 22 20 19 17 19 20 24 24 32 34 33 27 29 33 32 31 31 30 33 19 20 27 29 25 25 31 29 32 31 31 32 30 28 26 25 25 26 25 27 24 35 44 51 52 52 54 53 55 57 58 58 59 52 53 57 58 59 60 60 59 59 58 59 60 58 58 55 57 56
54 54 53 52 51 51 49 49 41 37 31 36 38 37 40 47 48 41 34 18 18 19 16 15 13 24 23 31 33 30 30 31 30 32 31 31 33 29 27 22 25 31 30 30 25 30 32 29 29 30 30 29 27 27 27 26 25 29 27 34 40 50 53 52 54 55 57 54 51 55 57 53 52 58 60 59 57 58 58 59 58 59 59 59 58 55 56 55
54 54 53 52 52 51 51 49 48 35 36 39 38 38 40 49 39 35 27 19 20 16 17 16 18 15 24 30 25 23 29 29 25 31 32 32 32 29 26 27 25 31 31 29 21 30 32 31 28 28 30 29 29 28 25 25 25 29 40 40 45 47 47 51 56 51 54 51 48 51 53 48 51 57 59 61 56 56 57 58 58 58 59 58 57 56 55 56
54 53 53 52 51 51 51 51 46 39 42 42 40 43 42 40 36 30 17 15 18 13 16 16 15 19 26 27 23 25 27 27 30 32 32 31 30 30 29 29 30 33 31 31 30 24 28 33 32 28 27 29 30 27 26 25 25 40 40 42 43 46 51 51 50 50 49 46 46 51 53 48 48 55 57 57 56 57 57 59 59 59 58 57 57 56 55 55
53 52 52 52 49 47 46 42 41 43 44 46 43 41 41 38 29 13 16 15 17 13 15 16 16 14 22 23 21 23 24 24 28 30 29 29 27 27 29 27 28 26 28 28 27 28 26 27 28 29 28 24 23 22 23 24 31 37 40 41 40 43 47 47 48 51 46 45 46 50 51 51 45 54 58 61 60 58 58 59 58 58 58 56 56 55 55 55
51 51 51 51 51 51 39 29 40 43 46 43 42 41 36 28 17 16 15 19 17 10 11 14 14 13 21 23 20 21 20 22 27 27 26 25 25 24 23 24 23 21 21 21 21 25 24 23 23 23 29 24 22 21 21 23 34 35 38 42 39 39 42 39 43 41 43 42 46 47 49 49 48 50 59 62 62 60 61 59 58 58 57 57 55 56 56 56
51 50 50 50 52 50 47 49 49 49 46 43 43 36 33 20 19 17 13 14 12 14 15 15 12 11 17 21 18 20 19 15 24 25 24 26 24 22 24 21 21 20 17 18 17 18 18 22 22 21 21 25 21 18 21 26 33 32 35 39 36 36 35 35 38 41 41 46 45 48 51 48 50 50 58 62 63 64 64 64 59 58 57 57 57 56 56 57
50 50 52 52 51 50 49 54 51 48 42 44 41 30 26 13 17 23 18 13 14 16 14 12 11 11 16 13 16 16 14 20 22 24 26 26 23 23 23 24 23 22 22 18 14 17 15 15 18 20 17 21 20 18 21 27 32 32 33 36 35 37 33 36 36 36 34 43 47 49 46 47 45 53 54 58 63 61 60 65 64 60 60 58 57 58 58 58
49 51 54 54 52 51 50 50 51 47 43 39 33 24 18 19 17 15 14 15 14 12 10 11 10 12 13 14 15 12 13 19 22 24 24 23 21 21 21 21 23 23 19 17 16 18 12 13 15 19 19 19 19 18 20 28 34 32 33 36 34 34 34 36 35 34 39 46 47 47 44 49 50 57 57 56 56 57 59 61 65 62 60 61 59 58 57 58
50 53 52 52 49 49 48 49 50 47 43 37 23 19 15 20 15 16 19 22 15 13 10 10 11 10 10 12 13 11 17 20 22 23 19 17 20 19 21 20 20 23 21 16 18 13 15 13 16 16 17 20 18 18 20 29 33 32 33 37 35 34 31 33 34 34 38 42 40 47 45 49 51 53 57 58 57 55 59 62 63 65 62 62 61 60 59 59
49 50 48 45 46 46 49 50 47 46 42 31 21 17 19 17 17 18 22 17 16 15 11 9 12 11 12 11 13 13 16 20 21 21 22 20 20 18 20 19 18 21 21 20 19 17 17 9 13 15 16 17 18 17 18 22 26 29 29 33 35 37 35 35 33 39 36 33 41 43 42 47 44 47 55 57 56 56 58 59 60 62 65 62 62 62 61 59
48 45 44 41 43 48 50 49 46 44 35 23 22 28 22 17 19 18 18 18 17 15 11 10 13 16 12 12 10 12 16 18 19 18 17 16 12 16 16 17 16 17 18 19 21 19 16 14 15 15 13 15 18 18 17 20 23 27 35 36 33 35 33 34 33 35 34 32 40 42 42 43 45 48 54 55 55 56 58 60 59 61 64 63 60 62 62 61
51 42 31 40 45 45 48 49 44 38 29 21 22 22 18 18 19 17 19 19 19 17 12 13 14 15 16 11 11 12 14 14 17 16 19 15 14 15 14 16 16 17 19 19 18 19 17 14 15 16 12 15 18 17 17 17 20 27 34 32 32 34 34 33 30 33 37 38 32 43 42 40 47 45 52 53 56 57 58 59 59 60 62 63 61 61 62 62
36 26 29 41 45 48 52 47 38 28 23 19 18 17 21 18 17 18 18 21 18 19 16 15 18 13 16 16 15 11 12 13 14 16 14 15 14 15 15 17 16 19 20 20 19 21 19 25 17 16 18 18 15 17 15 19 22 24 27 31 35 34 34 32 29 30 35 35 35 34 39 40 53 59 55 57 58 57 58 58 59 60 62 63 64 63 64 64
38 33 32 41 42 47 46 41 26 20 20 19 20 18 18 20 18 17 18 19 18 20 19 18 17 14 17 14 13 14 13 14 13 12 12 14 13 16 17 20 21 19 20 20 22 23 23 21 19 17 16 15 12 16 15 19 21 20 18 23 28 31 35 32 33 33 34 33 33 33 32 47 51 57 59 57 57 57 57 58 59 61 63 64 64 64 64 64
33 24 33 41 42 44 38 23 21 24 19 18 16 19 19 30 16 17 17 18 18 18 20 20 20 19 19 19 17 16 15 14 14 14 14 11 16 17 19 23 24 23 19 21 23 28 31 28 21 19 16 14 13 16 17 22 22 20 20 19 23 28 30 31 28 33 31 31 36 37 34 46 56 57 58 57 57 58 59 59 60 61 63 64 65 66 67 67
27 31 40 43 42 41 36 23 28 25 19 16 19 17 17 17 17 17 18 18 16 18 18 19 21 20 20 22 18 16 17 17 18 15 15 16 17 19 21 23 27 25 18 19 21 31 37 28 23 22 23 18 21 22 23 23 23 20 18 18 19 26 28 29 28 36 35 35 35 32 33 43 53 59 57 59 59 57 61 60 61 62 63 66 67 68 69 68
36 34 38 44 40 40 31 22 20 19 18 18 17 15 17 17 18 18 18 20 20 19 19 19 20 22 22 22 19 19 22 19 17 16 18 20 19 22 21 22 23 25 24 24 27 35 31 35 31 22 25 21 19 22 20 21 23 20 18 19 20 24 27 27 28 34 34 33 32 31 29 44 57 58 58 59 59 58 58 60 61 62 63 63 64 66 67 68
40 33 34 31 36 31 24 22 21 18 18 18 16 16 14 16 20 21 22 21 22 22 22 21 24 22 21 23 21 20 19 17 19 18 18 19 18 21 21 21 22 23 30 40 48 36 31 30 35 22 21 19 18 17 19 21 20 21 21 20 21 22 27 26 29 38 32 38 37 34 34 49 55 57 57 59 59 59 59 58 59 62 62 62 63 64 67 68
31 30 26 26 27 25 29 27 24 18 19 20 17 16 14 14 19 22 22 22 23 22 23 23 22 22 21 21 21 20 19 19 19 21 21 17 18 20 21 22 21 21 40 44 42 35 30 32 37 34 28 24 29 35 26 29 21 20 23 26 26 26 23 28 31 31 29 36 40 39 36 50 54 54 55 56 58 57 59 60 60 61 62 63 63 64 66 68
38 26 27 25 25 25 27 27 26 19 19 19 23 16 16 14 15 16 20 18 23 23 23 24 20 22 21 21 21 21 20 17 22 24 23 20 20 20 21 21 19 30 46 42 34 30 34 29 27 30 28 24 20 22 16 22 23 21 21 23 25 27 26 27 27 26 36 31 34 43 46 37 48 52 54 55 56 58 59 60 60 61 63 62 63 64 65 66
36 39 38 44 36 24 22 26 29 22 19 17 21 19 16 16 17 18 18 19 21 20 20 27 22 21 22 24 23 23 26 27 26 22 23 22 25 18 20 20 18 35 35 23 27 31 29 24 23 24 19 18 16 16 19 22 25 26 26 25 27 28 30 29 29 29 33 33 29 46 49 39 43 50 53 56 57 59 59 60 60 61 62 63 64 64 63 64
43 43 42 45 37 31 36 39 36 25 20 18 23 20 17 16 17 20 20 17 15 21 21 25 22 23 25 26 26 27 35 26 25 31 31 25 24 26 21 20 20 19 19 23 28 37 37 23 26 22 20 19 21 20 21 22 24 26 28 32 34 31 31 31 29 31 33 43 39 43 48 40 48 51 52 55 57 57 59 62 61 62 61 62 62 63 62 63
45 46 39 44 41 38 40 35 30 25 22 37 26 23 20 18 19 21 20 21 20 22 22 23 23 22 23 25 31 25 29 30 29 27 29 31 24 28 26 25 23 24 20 23 23 37 35 27 37 25 24 19 19 22 22 22 26 30 30 31 32 36 37 40 39 41 40 36 36 38 46 50 53 55 55 56 57 58 60 61 60 61 61 61 62 62 63 63
51 53 54 51 35 39 40 29 25 25 21 24 22 24 23 21 21 21 24 24 21 23 23 23 23 24 24 24 26 24 23 29 28 23 23 24 24 24 28 26 22 27 23 24 26 33 31 29 28 27 26 18 18 18 21 22 25 28 31 33 34 34 39 40 38 46 41 43 45 41 44 45 54 55 56 57 58 59 60 61 61 61 60 61 62 63 63 64
56 55 56 52 41 45 33 26 29 22 19 24 27 25 23 22 21 22 26 25 26 27 27 24 26 24 27 27 27 26 24 22 20 23 24 21 22 22 22 22 21 24 23 24 30 28 32 32 26 22 28 22 18 17 17 20 22 24 31 35 37 35 39 40 45 47 48 47 41 39 46 56 55 56 55 56 57 58 59 59 60 62 62 62 63 62 62 63